Location: *
(48.4333°N, 5.0333°W)
Time: 14:40:43
(UTC+00:00)

USA 234 - Pass Details

Date: 09 April 2020
Orbit: 1102 x 1106 km, 123.0° (Epoch: 14 May)

Event Time Altitude Azimuth Distance (km) Brightness Sun altitude
Rises 21:36:09 0° 55° (NE) 3,926 6.1 -22.9°
Reaches altitude 10° 21:38:41 10° 59° (ENE) 2,966 5.4 -23.2°
Maximum altitude 21:45:09 60° 138° (SE) 1,252 3.2 -23.9°
Drops below altitude 10° 21:51:36 10° 218° (SW) 2,956 5.4 -24.7°
Sets 21:54:07 0° 222° (SW) 3,912 6.1 -24.9°
